Regional Weather Roundup
Issued by NWS

Home | Current Version | Previous Version | Text Only | Print | Product List | Glossary On
Versions: 1 2 3 4 5 6 7 8 9 10 11 12 13 14 15 16 17 18 19 20 21 22 23 24 25 26 27 28 29 30 31 32 33 34 35 36 37 38 39 40 41 42 43 44 45 46 47 48 49 50
000
ASUS43 KLSX 230907
RWRMO

WEATHER SUMMARY FOR MISSOURI
NATIONAL WEATHER SERVICE SPRINGFIELD MO
400 AM CDT SAT MAY 23 2015

NOTE: "FAIR" INDICATES FEW OR NO CLOUDS BELOW 12,000 FEET WITH NO
       SIGNIFICANT WEATHER AND/OR OBSTRUCTIONS TO VISIBILITY.
       CURRENT SKY AND/OR WEATHER CONDITIONS ARE NOT AVAILABLE FOR
       CHILLICOTHE AND FARMINGTON.

MOZ001>031-035>038-043-044-053-054-231000-
...NORTHERN AND WESTERN MISSOURI...

CITY           SKY/WX    TMP DP  RH WIND       PRES   REMARKS
KANSAS CTY INT CLOUDY    60  50  69 SE8       30.20S
KANSAS C DTWN  LGT RAIN  63  49  60 SE6       30.20R
LEE`S SUMMIT   CLOUDY    60  50  69 S6        30.21S
ST JOSEPH      CLOUDY    59  53  80 SE6       30.20S
CHILLICOTHE      N/A     60  55  83 CALM      30.24R
KIRKSVILLE     MOCLDY    51  51 100 CALM      30.26R

$$
MOZ066>068-077>081-088>096-101>105-231000-
...SOUTHWEST MISSOURI...

CITY           SKY/WX    TMP DP  RH WIND       PRES   REMARKS
SPRINGFIELD    CLOUDY    59  48  67 SE13      30.22R
JOPLIN         LGT RAIN  60  51  72 SE6       30.21R

$$
MOZ032>034-039>042-045>050-055>058-069>072-231000-
...CENTRAL MISSOURI...

CITY           SKY/WX    TMP DP  RH WIND       PRES   REMARKS
COLUMBIA       CLOUDY    60  53  77 SE6       30.26R
JEFFERSON CITY CLOUDY    60  54  80 E5        30.26R
ROLLA          CLOUDY    59  50  72 SE6       30.26R
SEDALIA        CLOUDY    61  51  70 SE8       30.24S
WHITEMAN AFB   CLOUDY    61  50  66 S9        30.22R
OSAGE BEACH    CLOUDY    61  48  63 CALM      30.25S

$$
MOZ051-052-059>065-231000-
...EAST CENTRAL MISSOURI...

CITY           SKY/WX    TMP DP  RH WIND       PRES   REMARKS
ST LOUIS INTL  CLOUDY    65  52  62 CALM      30.28R
SPIRIT OF STL  CLOUDY    59  57  93 CALM      30.27R
ST CHARLES     CLOUDY    61  57  87 CALM      30.27R

$$
MOZ072>076-082>087-097>100-106>115-231000-
...SOUTH CENTRAL AND SOUTHEAST MISSOURI...

CITY           SKY/WX    TMP DP  RH WIND       PRES   REMARKS
CAPE GIRARDEAU CLOUDY    59  57  93 CALM      30.29R
FARMINGTON     CLOUDY    57  54  88 CALM      30.32R
POPLAR BLUFF   CLOUDY    59  55  87 CALM      30.27R
WEST PLAINS    CLOUDY    58  48  69 E3        30.27S

$$


USA.gov is the U.S. government's official web portal to all federal, state and local government web resources and services.